TimeEST,TemperatureF,Dew PointF,Humidity,Sea Level PressureIn,VisibilityMPH,Wind Direction,Wind SpeedMPH,Gust SpeedMPH,PrecipitationIn,Events,Conditions,WindDirDegrees,DateUTC
12:54 AM,1.0,-5.1,75,30.09,10.0,NNW,6.9,-,N/A,,Partly Cloudy,340,2013-01-07 05:54:00
1:54 AM,-0.9,-7.1,75,30.12,10.0,NNW,8.1,-,0.11,,Clear,340,2013-01-07 06:54:00
2:54 AM,1.0,-6.0,72,30.13,10.0,North,5.8,-,N/A,,Overcast,350,2013-01-07 07:54:00
3:54 AM,1.9,-5.1,72,30.15,10.0,North,9.2,-,N/A,,Overcast,350,2013-01-07 08:54:00
4:54 AM,1.9,-6.0,69,30.18,10.0,North,9.2,-,N/A,,Overcast,350,2013-01-07 09:54:00
6:54 AM,-7.1,-11.0,83,30.25,10.0,NW,6.9,-,N/A,,Clear,310,2013-01-07 11:54:00
7:54 AM,-7.1,-13.0,75,30.27,10.0,NW,10.4,-,N/A,,Clear,320,2013-01-07 12:54:00
8:54 AM,-5.1,-11.9,72,30.31,10.0,NW,6.9,-,N/A,,Clear,320,2013-01-07 13:54:00
9:54 AM,-2.0,-11.0,66,30.33,10.0,NNW,11.5,-,N/A,,Clear,330,2013-01-07 14:54:00
10:54 AM,-0.0,-11.0,60,30.32,10.0,NNW,11.5,-,N/A,,Clear,330,2013-01-07 15:54:00
11:54 AM,1.9,-11.0,55,30.32,10.0,WNW,4.6,-,N/A,,Clear,300,2013-01-07 16:54:00
12:54 PM,3.9,-11.0,50,30.32,10.0,NNW,5.8,-,N/A,,Clear,330,2013-01-07 17:54:00
2:54 PM,5.0,-11.9,46,30.35,10.0,NW,5.8,-,N/A,,Clear,310,2013-01-07 19:54:00
3:54 PM,1.9,-11.9,52,30.36,10.0,Calm,Calm,-,N/A,,Clear,0,2013-01-07 20:54:00
4:54 PM,1.9,-11.0,55,30.35,10.0,Calm,Calm,-,N/A,,Clear,0,2013-01-07 21:54:00
6:54 PM,-5.1,-13.0,69,30.38,10.0,SSE,3.5,-,N/A,,Clear,160,2013-01-07 23:54:00
7:54 PM,-5.1,-13.0,69,30.38,10.0,Calm,Calm,-,N/A,,Clear,0,2013-01-08 00:54:00
8:54 PM,-6.0,-11.9,75,30.35,10.0,Calm,Calm,-,N/A,,Clear,0,2013-01-08 01:54:00
9:54 PM,-6.0,-13.0,72,30.32,10.0,Calm,Calm,-,N/A,,Clear,0,2013-01-08 02:54:00
10:54 PM,-7.1,-14.1,72,30.28,10.0,SSE,3.5,-,0.37,,Clear,150,2013-01-08 03:54:00
11:54 PM,-0.9,-11.9,60,30.27,10.0,South,8.1,-,N/A,,Clear,190,2013-01-08 04:54:00